Weather History for Luverne, MN

Change the Weather History Date:

Tuesday, March 19, 2013

  Actual Average (KFSD) Record (KFSD)
Temperature  
Mean Temperature 19 °F 34 °F  
Max Temperature 30 °F 44 °F 75 °F (1976)
Min Temperature 8 °F 24 °F -5 °F (1965)
Degree Days  
Heating Degree Days 46 31  
Month to date heating degree days 659  
Since 1 July heating degree days 6509  
Cooling Degree Days 0 0  
Month to date cooling degree days 0  
Year to date cooling degree days 0  
Moisture  
Dew Point 8 °F    
Average Humidity 66    
Maximum Humidity 79    
Minimum Humidity 50    
Precipitation  
Precipitation 0.00 in 0.06 in 1.39 in (1964)
Month to date precipitation 0.86  
Year to date precipitation 2.02  
Snow  
Snow 0.00 in 0.20 in 11.60 in (1970)
Month to date snowfall 5.6  
Since 1 July snowfall 37.1  
Snow Depth -    
Sea Level Pressure  
Sea Level Pressure 30.14 in    
Wind  
Wind Speed 11 mph (NNW)    
Max Wind Speed 21 mph    
Max Gust Speed 28 mph    
Visibility 10 miles    
Events Snow    
T = Trace of Precipitation, MM = Missing Value Source: NWS Daily Summary

Daily Weather History Graph

Daily Weather History Graph

Search for Another Location

Airport:

Trip Planner

Search our weather history database for the weather conditions in past years. The results will help you decide how hot, cold, wet, or windy it might be!

Date:

Astronomy

Mar. 19, 2013 Rise Set
Actual Time 7:29 AM CDT 7:36 PM CDT
Civil Twilight 7:00 AM CDT 8:04 PM CDT
Nautical Twilight 6:27 AM CDT 8:38 PM CDT
Astronomical Twilight 5:53 AM CDT 9:12 PM CDT
Moon 12:10 PM CDT (3/19) 2:34 AM CDT (3/19)
Length of Visible Light 13h 04m
Length of Day
12h 07m
Waxing Crescent, 50% of the Moon is Illuminated
Mar 19
Waxing Crescent
Mar 19
First Quarter
Mar 27
Full
Apr 2
Last Quarter
Apr 10
New

Hourly Weather History & Observations

Time (CDT) Temp. Windchill Dew Point Humidity Pressure Visibility Wind Dir Wind Speed Gust Speed Precip Events Conditions
12:17 AM 14.0 °F -0.2 °F 5.0 °F 67% 29.99 in 10.0 mi NNW 12.7 mph 19.6 mph N/A   Clear
12:37 AM 14.0 °F -1.4 °F 5.0 °F 67% 29.99 in 10.0 mi NW 15.0 mph 19.6 mph N/A   Clear
12:57 AM 12.2 °F -4.3 °F 3.2 °F 67% 29.98 in 10.0 mi NNW 16.1 mph 20.7 mph N/A   Clear
1:17 AM 12.2 °F -2.5 °F 3.2 °F 67% 29.98 in 10.0 mi NNW 12.7 mph 21.9 mph N/A   Clear
1:37 AM 12.2 °F -2.5 °F 3.2 °F 67% 30.01 in 10.0 mi NW 12.7 mph - N/A   Clear
1:57 AM 12.2 °F -1.8 °F 3.2 °F 67% 30.02 in 10.0 mi NW 11.5 mph 17.3 mph N/A   Clear
2:17 AM 12.2 °F -2.5 °F 3.2 °F 67% 30.02 in 10.0 mi NW 12.7 mph 18.4 mph N/A   Clear
2:37 AM 12.2 °F -3.1 °F 3.2 °F 67% 30.02 in 10.0 mi NW 13.8 mph 20.7 mph N/A   Clear
2:57 AM 12.2 °F -1.0 °F 3.2 °F 67% 30.03 in 10.0 mi NW 10.4 mph - N/A   Clear
3:17 AM 10.4 °F -1.5 °F 3.2 °F 73% 30.05 in 10.0 mi NW 8.1 mph - N/A   Clear
3:37 AM 10.4 °F 0.8 °F 3.2 °F 73% 30.04 in 10.0 mi NW 5.8 mph - N/A   Clear
3:56 AM 10.4 °F 0.8 °F 3.2 °F 73% 30.04 in 10.0 mi NNW 5.8 mph - N/A   Clear
4:17 AM 10.4 °F -1.5 °F 3.2 °F 73% 30.03 in 10.0 mi NNW 8.1 mph - N/A   Clear
4:37 AM 10.4 °F -1.5 °F 3.2 °F 73% 30.04 in 10.0 mi NNW 8.1 mph - N/A   Clear
4:56 AM 10.4 °F 0.8 °F 3.2 °F 73% 30.05 in 10.0 mi WNW 5.8 mph - N/A   Clear
5:17 AM 10.4 °F -1.5 °F 1.4 °F 67% 30.03 in 10.0 mi NW 8.1 mph - N/A   Clear
5:36 AM 8.6 °F -1.3 °F 3.2 °F 79% 30.04 in 10.0 mi NNW 5.8 mph - N/A   Clear
5:57 AM 8.6 °F -1.3 °F 1.4 °F 73% 30.05 in 10.0 mi WNW 5.8 mph - N/A   Clear
6:17 AM 8.6 °F -2.6 °F 1.4 °F 73% 30.05 in 10.0 mi NW 6.9 mph - N/A   Clear
6:37 AM 8.6 °F -4.7 °F 3.2 °F 79% 30.09 in 10.0 mi West 9.2 mph - N/A   Clear
6:57 AM 8.6 °F -3.7 °F 1.4 °F 73% 30.07 in 10.0 mi NNW 8.1 mph - N/A   Clear
7:17 AM 8.6 °F -1.3 °F 1.4 °F 73% 30.09 in 10.0 mi WNW 5.8 mph - N/A   Clear
7:37 AM 8.6 °F -2.6 °F 1.4 °F 73% 30.10 in 10.0 mi NW 6.9 mph - N/A   Clear
7:57 AM 8.6 °F 0.1 °F 1.4 °F 73% 30.11 in 10.0 mi NNW 4.6 mph - N/A   Clear
8:17 AM 10.4 °F -0.4 °F 3.2 °F 73% 30.11 in 10.0 mi NNW 6.9 mph - N/A   Scattered Clouds
8:37 AM 12.2 °F -0.2 °F 3.2 °F 67% 30.11 in 10.0 mi North 9.2 mph - N/A   Mostly Cloudy
8:56 AM 12.2 °F 0.7 °F 3.2 °F 67% 30.11 in 10.0 mi North 8.1 mph - N/A   Mostly Cloudy
9:17 AM 14.0 °F 2.0 °F 5.0 °F 67% 30.10 in 10.0 mi NNE 9.2 mph - N/A   Scattered Clouds
9:37 AM 14.0 °F 3.9 °F 3.2 °F 62% 30.09 in 10.0 mi NE 6.9 mph - N/A   Mostly Cloudy
9:57 AM 15.8 °F 6.1 °F 5.0 °F 62% 30.13 in 10.0 mi NW 6.9 mph - N/A   Scattered Clouds
10:17 AM 17.6 °F 12.3 °F 5.0 °F 58% 30.12 in 10.0 mi NNE 3.5 mph - N/A   Mostly Cloudy
10:37 AM 17.6 °F 9.3 °F 5.0 °F 58% 30.13 in 10.0 mi NNW 5.8 mph - N/A   Scattered Clouds
10:57 AM 19.4 °F 9.5 °F 5.0 °F 54% 30.13 in 10.0 mi NNW 8.1 mph - N/A   Scattered Clouds
11:17 AM 21.2 °F 14.9 °F 8.6 °F 58% 30.13 in 10.0 mi North 4.6 mph - N/A   Scattered Clouds
11:36 AM 21.2 °F 12.6 °F 8.6 °F 58% 30.14 in 10.0 mi North 6.9 mph - N/A   Scattered Clouds
11:57 AM 21.2 °F 12.6 °F 8.6 °F 58% 30.15 in 10.0 mi North 6.9 mph - N/A   Mostly Cloudy
12:17 PM 23.0 °F 12.4 °F 8.6 °F 54% 30.15 in 10.0 mi NNW 10.4 mph - N/A   Clear
12:37 PM 23.0 °F 12.4 °F 8.6 °F 54% 30.16 in 10.0 mi North 10.4 mph - N/A   Clear
12:57 PM 24.8 °F 20.5 °F 8.6 °F 50% 30.15 in 10.0 mi North 3.5 mph - N/A   Scattered Clouds
1:17 PM 26.6 °F 20.0 °F 10.4 °F 51% 30.14 in 10.0 mi North 5.8 mph - N/A   Clear
1:37 PM 26.6 °F 18.2 °F 12.2 °F 55% 30.15 in 10.0 mi NW 8.1 mph - N/A   Clear
1:57 PM 26.6 °F 20.0 °F 14.0 °F 59% 30.16 in 10.0 mi NNW 5.8 mph - N/A   Clear
2:17 PM 26.6 °F 18.2 °F 14.0 °F 59% 30.16 in 10.0 mi NW 8.1 mph - N/A   Clear
2:37 PM 26.6 °F 18.2 °F 15.8 °F 64% 30.16 in 10.0 mi NNW 8.1 mph - N/A   Clear
2:57 PM 28.4 °F 19.7 °F 17.6 °F 64% 30.15 in 10.0 mi North 9.2 mph - N/A   Clear
3:17 PM 28.4 °F 18.0 °F 17.6 °F 64% 30.16 in 10.0 mi NW 12.7 mph - N/A   Scattered Clouds
3:37 PM 28.4 °F 18.0 °F 17.6 °F 64% 30.16 in 10.0 mi WNW 12.7 mph 17.3 mph N/A   Clear
3:57 PM 30.2 °F 19.8 °F 17.6 °F 60% 30.16 in 10.0 mi NNW 13.8 mph - N/A   Clear
4:17 PM 30.2 °F 18.5 °F 17.6 °F 60% 30.17 in 10.0 mi NW 17.3 mph 23.0 mph N/A   Clear
4:37 PM 28.4 °F 15.8 °F 17.6 °F 64% 30.17 in 10.0 mi NNW 18.4 mph 23.0 mph N/A   Mostly Cloudy
4:57 PM 28.4 °F 15.1 °F 17.6 °F 64% 30.18 in 10.0 mi NNW 20.7 mph 24.2 mph N/A   Overcast
5:17 PM 28.4 °F 15.8 °F 15.8 °F 59% 30.19 in 10.0 mi NNW 18.4 mph 27.6 mph N/A   Overcast
5:37 PM 26.6 °F 13.1 °F 17.6 °F 69% 30.20 in 7.0 mi North 19.6 mph 23.0 mph N/A Snow Light Snow
5:57 PM 26.6 °F 14.7 °F 17.6 °F 69% 30.21 in 10.0 mi North 15.0 mph 23.0 mph N/A   Overcast
6:16 PM 24.8 °F 11.5 °F 15.8 °F 69% 30.23 in 10.0 mi NNW 17.3 mph 24.2 mph N/A   Scattered Clouds
6:37 PM 24.8 °F 11.1 °F 14.0 °F 64% 30.23 in 10.0 mi NNW 18.4 mph 24.2 mph N/A   Clear
6:57 PM 23.0 °F 8.3 °F 14.0 °F 68% 30.24 in 10.0 mi NNW 19.6 mph 24.2 mph N/A   Scattered Clouds
7:16 PM 23.0 °F 8.3 °F 14.0 °F 68% 30.24 in 10.0 mi NNW 19.6 mph 23.0 mph N/A   Mostly Cloudy
7:37 PM 21.2 °F 7.8 °F 12.2 °F 68% 30.25 in 10.0 mi NNW 15.0 mph - N/A   Mostly Cloudy
7:57 PM 21.2 °F 7.3 °F 14.0 °F 74% 30.26 in 10.0 mi NNW 16.1 mph 21.9 mph N/A Snow Light Snow
8:16 PM 19.4 °F 4.5 °F 12.2 °F 74% 30.27 in 10.0 mi NNW 17.3 mph 20.7 mph N/A Snow Light Snow
8:37 PM 19.4 °F 5.0 °F 10.4 °F 68% 30.27 in 10.0 mi North 16.1 mph - N/A   Scattered Clouds
8:57 PM 19.4 °F 4.5 °F 10.4 °F 68% 30.27 in 10.0 mi NNW 17.3 mph 24.2 mph N/A   Scattered Clouds
9:16 PM 19.4 °F 4.1 °F 10.4 °F 68% 30.27 in 10.0 mi NNW 18.4 mph 24.2 mph N/A   Clear
9:37 PM 17.6 °F 2.7 °F 10.4 °F 73% 30.29 in 10.0 mi NNW 16.1 mph 25.3 mph N/A   Clear
9:57 PM 17.6 °F 2.2 °F 10.4 °F 73% 30.29 in 10.0 mi NNW 17.3 mph 26.5 mph N/A   Clear
10:17 PM 17.6 °F 0.9 °F 8.6 °F 68% 30.30 in 10.0 mi NNW 20.7 mph 25.3 mph N/A   Scattered Clouds
10:37 PM 17.6 °F 0.9 °F 8.6 °F 68% 30.31 in 7.0 mi NNW 20.7 mph 27.6 mph N/A Snow Light Snow
10:57 PM 17.6 °F 1.3 °F 8.6 °F 68% 30.31 in 10.0 mi NNW 19.6 mph 27.6 mph N/A Snow Light Snow
11:17 PM 15.8 °F 0.3 °F 8.6 °F 73% 30.32 in 7.0 mi NNW 16.1 mph 20.7 mph N/A   Overcast
11:37 PM 15.8 °F -0.2 °F 8.6 °F 73% 30.32 in 10.0 mi NNW 17.3 mph - N/A   Overcast
11:57 PM 15.8 °F 1.4 °F 8.6 °F 73% 30.32 in 5.0 mi NNW 13.8 mph 20.7 mph N/A Snow Light Snow